DW3471 Weather Reports


Display with metric or nautical units.
time (UTC)temp
F
wind
direction
speed
MPH
gust
MPH
rain 1hr
in
rain 24hr
in
rain mn
in
humidity
%
barometer
mb
20260508182106 66 312 3.0 5.0 0.00 0.00 0.00 37 1010.9
20260508181106 67 331 2.0 6.0 0.00 0.00 0.00 39 1011.3
20260508180034 66 283 2.0 7.0 0.00 0.00 0.00 39 1011.3
20260508175034 65 270 2.0 5.0 0.00 0.00 0.00 40 1011.3
20260508174033 65 237 1.0 5.0 0.00 0.00 0.00 41 1011.6
20260508173032 67 321 2.0 7.0 0.00 0.00 0.00 37 1012.0
20260508172032 67 321 2.0 6.0 0.00 0.00 0.00 39 1011.6
20260508171031 66 209 3.0 6.0 0.00 0.00 0.00 38 1011.6
20260508170030 66 329 2.0 8.0 0.00 0.00 0.00 39 1011.6
20260508165029 65 310 2.0 5.0 0.00 0.00 0.00 42 1011.6
20260508164029 64 296 2.0 8.0 0.00 0.00 0.00 43 1011.6
20260508163028 63 289 2.0 5.0 0.00 0.00 0.00 44 1012.3
20260508162028 62 329 3.0 4.0 0.00 0.00 0.00 45 1012.3
20260508161027 62 288 3.0 7.0 0.00 0.00 0.00 42 1012.6
20260508160026 61 308 2.0 6.0 0.00 0.00 0.00 44 1012.6
20260508155026 60 336 2.0 4.0 0.00 0.00 0.00 44 1012.9
20260508154025 61 327 2.0 5.0 0.00 0.00 0.00 43 1013.2
20260508153024 60 248 2.0 4.0 0.00 0.00 0.00 44 1012.9
20260508152024 60 303 2.0 4.0 0.00 0.00 0.00 44 1013.2
20260508151023 60 294 2.0 4.0 0.00 0.00 0.00 46 1012.9
20260508150022 59 302 2.0 4.0 0.00 0.00 0.00 47 1013.2
20260508145022 59 310 1.0 3.0 0.00 0.00 0.00 45 1013.2
20260508144021 59 323 1.0 4.0 0.00 0.00 0.00 45 1013.2
20260508143020 59 30 1.0 4.0 0.00 0.00 0.00 47 1013.2
20260508142020 58 306 2.0 4.0 0.00 0.00 0.00 48 1013.2
20260508141019 57 25 1.0 4.0 0.00 0.00 0.00 48 1013.2
20260508140018 56 316 3.0 5.0 0.00 0.00 0.00 50 1013.2
20260508135018 56 342 2.0 3.0 0.00 0.00 0.00 49 1013.2
20260508134017 55 339 1.0 3.0 0.00 0.00 0.00 52 1013.5
20260508133017 55 340 2.0 3.0 0.00 0.00 0.00 53 1013.2
20260508132016 53 177 0.0 4.0 0.00 0.00 0.00 59 1013.5
20260508130944 52 300 2.0 2.0 0.00 0.00 0.00 63 1013.5
20260508125943 52 8 2.0 3.0 0.00 0.00 0.00 66 1013.5
20260508124943 51 5 2.0 4.0 0.00 0.00 0.00 67 1013.5
20260508123942 51 312 0.0 3.0 0.00 0.00 0.00 72 1013.5
20260508122942 50 304 1.0 2.0 0.00 0.00 0.00 76 1013.5
20260508121941 48 26 1.0 3.0 0.00 0.00 0.00 78 1013.5
20260508120940 47 331 1.0 2.0 0.00 0.00 0.00 79 1013.1
20260508115940 46 333 1.0 2.0 0.00 0.00 0.00 80 1013.1
20260508114908 45 327 0.0 2.0 0.00 0.00 0.00 81 1013.1
20260508113907 44 89 0.0 1.0 0.00 0.00 0.00 81 1013.1
20260508112906 44 98 0.0 0.0 0.00 0.00 0.00 81 1013.1
20260508111835 44 117 0.0 0.0 0.00 0.00 0.00 81 1013.1
20260508110834 44 348 0.0 0.0 0.00 0.00 0.00 81 1013.1
20260508105833 44 145 0.0 0.0 0.00 0.00 0.00 81 1013.2
20260508104832 44 145 0.0 0.0 0.00 0.00 0.00 80 1012.8
20260508103832 44 360 0.0 0.0 0.00 0.00 0.00 80 1012.8
20260508102831 44 360 0.0 0.0 0.00 0.00 0.00 80 1012.8
20260508101830 45 256 0.0 0.0 0.00 0.00 0.00 80 1012.9
20260508100830 45 256 0.0 0.0 0.00 0.00 0.00 79 1012.5
20260508095829 45 181 0.0 0.0 0.00 0.00 0.00 79 1012.5
20260508094829 45 181 0.0 0.0 0.00 0.00 0.00 79 1012.2
20260508093828 46 181 0.0 0.0 0.00 0.00 0.00 78 1012.2
20260508092828 46 181 0.0 0.0 0.00 0.00 0.00 78 1012.2
20260508091827 47 355 0.0 0.0 0.00 0.00 0.00 77 1012.2
20260508090827 47 355 0.0 0.0 0.00 0.00 0.00 76 1012.2
20260508085755 48 355 0.0 1.0 0.00 0.00 0.00 75 1012.2
20260508084754 48 355 0.0 1.0 0.00 0.00 0.00 74 1011.9
20260508083753 49 355 0.0 1.0 0.00 0.01 0.00 73 1011.9
20260508082753 49 355 0.0 3.0 0.00 0.01 0.00 72 1011.9
20260508081752 49 345 1.0 3.0 0.00 0.01 0.00 71 1011.6
20260508080751 50 355 2.0 6.0 0.00 0.01 0.00 70 1011.3
20260508075751 50 330 2.0 4.0 0.00 0.01 0.00 69 1011.2
20260508074750 50 326 2.0 8.0 0.00 0.02 0.00 68 1010.9
20260508073718 51 0 2.0 5.0 0.00 0.03 0.00 68 1010.9
20260508072718 51 327 2.0 7.0 0.00 0.03 0.00 67 1010.9
20260508071717 51 338 3.0 5.0 0.00 0.03 0.00 66 1010.6
20260508070716 51 334 2.0 6.0 0.00 0.05 0.00 66 1010.6
20260508065715 51 289 4.0 7.0 0.00 0.05 0.00 66 1010.2
20260508064715 51 307 2.0 6.0 0.00 0.05 0.00 68 1010.2
20260508063644 52 328 1.0 2.0 0.00 0.06 0.00 69 1010.2
20260508062643 52 320 1.0 7.0 0.00 0.07 0.00 71 1010.2
20260508061642 53 327 1.0 1.0 0.00 0.08 0.00 73 1009.6
20260508060641 53 327 0.0 2.0 0.00 0.10 0.00 73 1009.2
20260508055641 53 350 2.0 2.0 0.00 0.11 0.00 73 1009.2
20260508054640 53 43 0.0 1.0 0.00 0.11 0.00 72 1009.2
20260508053640 53 43 0.0 0.0 0.00 0.12 0.00 71 1009.2
20260508052639 54 43 0.0 0.0 0.00 0.13 0.00 69 1009.3
20260508051638 54 43 0.0 0.0 0.00 0.14 0.00 68 1009.2
20260508050607 54 43 0.0 1.0 0.00 0.14 0.00 68 1008.9
20260508045535 54 45 0.0 1.0 0.00 0.14 0.00 67 1008.5
20260508044504 54 44 0.0 2.0 0.00 0.14 0.00 66 1008.9
20260508043503 54 54 0.0 1.0 0.00 0.14 0.00 65 1008.5
20260508042503 54 35 1.0 2.0 0.00 0.14 0.00 63 1008.5
20260508041502 54 76 1.0 2.0 0.00 0.14 0.00 61 1008.5
20260508040501 54 309 2.0 3.0 0.00 0.14 0.00 60 1008.9
20260508035500 54 92 0.0 0.0 0.00 0.14 0.14 60 1008.5
20260508034358 54 236 0.0 2.0 0.00 0.14 0.14 61 1008.5
20260508033357 54 313 0.0 1.0 0.00 0.15 0.14 60 1008.5
20260508032356 54 313 0.0 0.0 0.00 0.15 0.14 58 1008.5
20260508031325 53 313 0.0 0.0 0.00 0.15 0.14 59 1008.5
20260508030324 53 313 0.0 0.0 0.00 0.15 0.14 56 1008.5
20260508025323 53 313 0.0 0.0 0.00 0.15 0.14 60 1008.5
20260508024323 54 313 0.0 0.0 0.00 0.15 0.14 60 1008.5
20260508023322 54 313 0.0 1.0 0.00 0.15 0.14 58 1008.5
20260508022250 55 313 0.0 0.0 0.00 0.16 0.14 55 1008.1
20260508021218 55 313 0.0 0.0 0.00 0.21 0.14 54 1008.5
20260508020218 55 313 0.0 0.0 0.00 0.21 0.14 52 1008.1
20260508015217 55 313 0.0 0.0 0.00 0.21 0.14 51 1008.1
20260508014216 55 313 0.0 0.0 0.00 0.22 0.14 54 1008.1
20260508013216 55 313 0.0 0.0 0.00 0.22 0.14 55 1008.0
20260508012215 55 313 0.0 0.0 0.00 0.22 0.14 54 1008.0
20260508011215 55 313 0.0 0.0 0.00 0.22 0.14 56 1007.7
20260508010214 56 313 0.0 0.0 0.00 0.22 0.14 54 1007.7
20260508005213 56 313 0.0 0.0 0.00 0.22 0.14 53 1007.7
20260508004213 57 313 0.0 0.0 0.00 0.22 0.14 52 1007.7
20260508003212 58 313 0.0 0.0 0.00 0.22 0.14 51 1007.7
20260508002211 59 313 0.0 0.0 0.00 0.22 0.14 51 1007.4
20260508001211 60 313 0.0 0.0 0.00 0.22 0.14 44 1007.4
20260508000139 60 313 0.0 1.0 0.00 0.22 0.14 42 1007.5
20260507235139 61 313 1.0 1.0 0.00 0.22 0.14 41 1007.5
20260507234138 62 313 0.0 3.0 0.00 0.22 0.14 40 1007.5
20260507233137 62 304 1.0 3.0 0.00 0.22 0.14 40 1007.5
20260507232137 63 281 3.0 4.0 0.00 0.22 0.14 38 1007.5
20260507231136 64 306 1.0 3.0 0.00 0.22 0.14 39 1007.5
20260507230135 64 315 1.0 4.0 0.00 0.22 0.14 37 1007.2
20260507225135 65 15 0.0 3.0 0.00 0.22 0.14 37 1007.2
20260507224134 65 8 1.0 6.0 0.00 0.22 0.14 35 1007.2
20260507223133 66 289 2.0 4.0 0.00 0.22 0.14 36 1007.2
20260507222132 66 341 1.0 2.0 0.00 0.22 0.14 36 1007.2
20260507221101 66 276 2.0 4.0 0.00 0.22 0.14 35 1007.2
20260507220100 66 293 2.0 6.0 0.00 0.22 0.14 35 1007.2
20260507215059 66 279 3.0 6.0 0.00 0.22 0.14 35 1007.2
20260507213957 66 289 2.0 6.0 0.00 0.22 0.14 35 1007.2
20260507212956 67 325 2.0 4.0 0.00 0.22 0.14 37 1007.2
20260507211853 66 335 2.0 5.0 0.00 0.22 0.14 35 1007.2
20260507210853 67 288 3.0 5.0 0.00 0.22 0.14 34 1007.2
20260507205852 67 29 1.0 4.0 0.00 0.22 0.14 35 1007.2
20260507204852 67 341 2.0 6.0 0.00 0.22 0.14 36 1007.2
20260507203851 67 327 1.0 8.0 0.00 0.22 0.14 37 1007.2
20260507202850 67 28 2.0 8.0 0.00 0.22 0.14 34 1007.2
20260507201849 67 305 3.0 6.0 0.00 0.22 0.14 35 1007.2
20260507200849 67 290 2.0 7.0 0.00 0.22 0.14 35 1007.2
20260507195849 67 317 2.0 4.0 0.00 0.22 0.14 35 1007.5
20260507194848 67 286 3.0 5.0 0.00 0.22 0.14 36 1007.5
20260507193848 67 289 3.0 6.0 0.00 0.22 0.14 36 1007.5
20260507192847 67 270 3.0 4.0 0.00 0.22 0.14 38 1007.5
20260507191816 66 20 2.0 6.0 0.00 0.22 0.14 37 1007.9
20260507190815 66 281 2.0 6.0 0.00 0.22 0.14 39 1007.9
20260507185814 66 16 1.0 5.0 0.00 0.22 0.14 38 1008.2
20260507184742 65 66 2.0 6.0 0.00 0.22 0.14 36 1008.2
20260507183711 65 71 0.0 7.0 0.00 0.22 0.14 36 1008.2
20260507182710 64 359 3.0 7.0 0.00 0.22 0.14 37 1008.2